Time,TemperatureF,DewpointF,PressureIn,WindDirection,WindDirectionDegrees,WindSpeedMPH,WindSpeedGustMPH,Humidity,HourlyPrecipIn,Conditions,Clouds,dailyrainin,SoftwareType,DateUTC
2013-03-07 00:04:00,52.7,38.8,29.96,WNW,292,6.3,-999.0,59,-99.99,,,0.00,Acu-Link.com,2013-03-07 05:04:00,
2013-03-07 00:19:00,52.3,38.8,29.95,WNW,292,9.4,-999.0,60,-99.99,,,0.00,Acu-Link.com,2013-03-07 05:19:00,
2013-03-07 00:34:00,52.2,38.3,29.95,NW,315,9.4,-999.0,59,-99.99,,,0.00,Acu-Link.com,2013-03-07 05:34:00,
2013-03-07 00:49:00,52.0,38.6,29.95,West,270,5.8,-999.0,60,-99.99,,,0.00,Acu-Link.com,2013-03-07 05:49:00,
2013-03-07 01:05:00,51.8,38.4,29.95,West,270,6.8,-999.0,60,-99.99,,,0.00,Acu-Link.com,2013-03-07 06:05:00,
2013-03-07 01:20:00,51.6,38.2,29.95,NW,315,6.8,-999.0,60,-99.99,,,0.00,Acu-Link.com,2013-03-07 06:20:00,
2013-03-07 01:35:00,51.4,37.6,29.95,WNW,292,6.8,-999.0,59,-99.99,,,0.00,Acu-Link.com,2013-03-07 06:35:00,
2013-03-07 01:50:00,51.3,37.5,29.95,WNW,292,10.9,-999.0,59,-99.99,,,0.00,Acu-Link.com,2013-03-07 06:50:00,
2013-03-07 02:05:00,50.9,37.1,29.94,WNW,292,4.2,-999.0,59,-99.99,,,0.00,Acu-Link.com,2013-03-07 07:05:00,
2013-03-07 02:20:00,50.7,36.9,29.94,WNW,292,8.3,-999.0,59,-99.99,,,0.00,Acu-Link.com,2013-03-07 07:20:00,
2013-03-07 02:35:00,50.5,36.7,29.94,West,270,3.7,-999.0,59,-99.99,,,0.00,Acu-Link.com,2013-03-07 07:35:00,
2013-03-07 02:51:00,50.4,36.6,29.94,West,270,7.3,-999.0,59,-99.99,,,0.00,Acu-Link.com,2013-03-07 07:51:00,
2013-03-07 03:06:00,50.0,35.8,29.94,NW,315,6.3,-999.0,58,-99.99,,,0.00,Acu-Link.com,2013-03-07 08:06:00,
2013-03-07 03:21:00,49.8,35.6,29.94,NE,45,3.2,-999.0,58,-99.99,,,0.00,Acu-Link.com,2013-03-07 08:21:00,
2013-03-07 03:36:00,49.5,35.3,29.94,NW,315,7.8,-999.0,58,-99.99,,,0.00,Acu-Link.com,2013-03-07 08:36:00,
2013-03-07 03:51:00,49.5,35.3,29.94,NW,315,6.3,-999.0,58,-99.99,,,0.00,Acu-Link.com,2013-03-07 08:51:00,
2013-03-07 04:07:00,49.1,35.4,29.94,North,0,6.8,-999.0,59,-99.99,,,0.00,Acu-Link.com,2013-03-07 09:07:00,
2013-03-07 04:22:00,48.7,35.0,29.94,North,0,7.8,-999.0,59,-99.99,,,0.00,Acu-Link.com,2013-03-07 09:22:00,
2013-03-07 04:37:00,48.4,34.7,29.94,WNW,292,5.8,-999.0,59,-99.99,,,0.00,Acu-Link.com,2013-03-07 09:37:00,
2013-03-07 04:52:00,48.2,34.6,29.94,North,0,3.2,-999.0,59,-99.99,,,0.00,Acu-Link.com,2013-03-07 09:52:00,
2013-03-07 05:07:00,48.0,34.8,29.94,North,0,5.8,-999.0,60,-99.99,,,0.00,Acu-Link.com,2013-03-07 10:07:00,
2013-03-07 05:22:00,47.8,35.0,29.94,NNW,337,7.3,-999.0,61,-99.99,,,0.00,Acu-Link.com,2013-03-07 10:22:00,
2013-03-07 05:37:00,47.8,35.0,29.94,NW,315,6.3,-999.0,61,-99.99,,,0.00,Acu-Link.com,2013-03-07 10:37:00,
2013-03-07 05:53:00,47.5,35.1,29.96,NNW,337,5.8,-999.0,62,-99.99,,,0.00,Acu-Link.com,2013-03-07 10:53:00,
2013-03-07 06:08:00,47.3,34.9,29.97,WNW,292,4.7,-999.0,62,-99.99,,,0.00,Acu-Link.com,2013-03-07 11:08:00,
2013-03-07 06:23:00,47.3,34.9,29.98,West,270,6.3,-999.0,62,-99.99,,,0.00,Acu-Link.com,2013-03-07 11:23:00,
2013-03-07 06:38:00,47.1,35.6,29.98,NNW,337,5.8,-999.0,64,-99.99,,,0.00,Acu-Link.com,2013-03-07 11:38:00,
2013-03-07 06:53:00,47.3,35.7,29.99,NW,315,2.7,-999.0,64,-99.99,,,0.00,Acu-Link.com,2013-03-07 11:53:00,
2013-03-07 07:08:00,48.0,35.6,30.00,WNW,292,5.8,-999.0,62,-99.99,,,0.00,Acu-Link.com,2013-03-07 12:08:00,
2013-03-07 07:23:00,49.1,35.4,30.01,NW,315,6.3,-999.0,59,-99.99,,,0.00,Acu-Link.com,2013-03-07 12:23:00,
2013-03-07 07:38:00,49.6,35.4,30.01,WNW,292,7.3,-999.0,58,-99.99,,,0.00,Acu-Link.com,2013-03-07 12:38:00,
2013-03-07 07:54:00,51.1,36.4,30.02,NW,315,6.8,-999.0,57,-99.99,,,0.00,Acu-Link.com,2013-03-07 12:54:00,
2013-03-07 08:09:00,52.2,37.0,30.02,NNW,337,5.8,-999.0,56,-99.99,,,0.00,Acu-Link.com,2013-03-07 13:09:00,
2013-03-07 08:24:00,52.7,37.9,30.03,NE,45,2.2,-999.0,57,-99.99,,,0.00,Acu-Link.com,2013-03-07 13:24:00,
2013-03-07 08:39:00,54.1,39.2,30.03,West,270,7.3,-999.0,57,-99.99,,,0.00,Acu-Link.com,2013-03-07 13:39:00,
2013-03-07 08:54:00,54.9,40.4,30.03,WNW,292,8.9,-999.0,58,-99.99,,,0.00,Acu-Link.com,2013-03-07 13:54:00,
2013-03-07 09:09:00,56.1,41.5,30.03,NNE,22,5.8,-999.0,58,-99.99,,,0.00,Acu-Link.com,2013-03-07 14:09:00,
2013-03-07 09:24:00,57.2,43.0,30.04,NE,45,6.3,-999.0,59,-99.99,,,0.00,Acu-Link.com,2013-03-07 14:24:00,
2013-03-07 09:39:00,58.6,43.9,30.03,NE,45,6.8,-999.0,58,-99.99,,,0.00,Acu-Link.com,2013-03-07 14:39:00,
2013-03-07 09:54:00,60.1,45.3,30.03,West,270,4.2,-999.0,58,-99.99,,,0.00,Acu-Link.com,2013-03-07 14:54:00,
2013-03-07 10:10:00,61.2,45.8,30.04,North,0,5.8,-999.0,57,-99.99,,,0.00,Acu-Link.com,2013-03-07 15:10:00,
2013-03-07 10:25:00,61.2,45.8,30.05,NNE,22,7.8,-999.0,57,-99.99,,,0.00,Acu-Link.com,2013-03-07 15:25:00,
2013-03-07 10:40:00,62.8,46.4,30.05,West,270,6.8,-999.0,55,-99.99,,,0.00,Acu-Link.com,2013-03-07 15:40:00,
2013-03-07 10:55:00,62.4,46.5,30.04,NE,45,3.7,-999.0,56,-99.99,,,0.00,Acu-Link.com,2013-03-07 15:55:00,
2013-03-07 11:10:00,63.9,47.4,30.04,NE,45,2.7,-999.0,55,-99.99,,,0.00,Acu-Link.com,2013-03-07 16:10:00,
2013-03-07 11:25:00,65.3,46.2,30.04,NE,45,6.3,-999.0,50,-99.99,,,0.00,Acu-Link.com,2013-03-07 16:25:00,
2013-03-07 11:40:00,67.1,46.2,30.04,NW,315,3.7,-999.0,47,-99.99,,,0.00,Acu-Link.com,2013-03-07 16:40:00,
2013-03-07 11:55:00,66.7,42.9,30.03,West,270,5.8,-999.0,42,-99.99,,,0.00,Acu-Link.com,2013-03-07 16:55:00,
2013-03-07 12:10:00,68.0,44.0,30.02,SSW,202,4.7,-999.0,42,-99.99,,,0.00,Acu-Link.com,2013-03-07 17:10:00,
2013-03-07 12:26:00,67.6,43.1,30.02,NE,45,4.2,-999.0,41,-99.99,,,0.00,Acu-Link.com,2013-03-07 17:26:00,
2013-03-07 12:41:00,68.4,43.8,30.01,West,270,3.7,-999.0,41,-99.99,,,0.00,Acu-Link.com,2013-03-07 17:41:00,
2013-03-07 12:56:00,67.8,42.6,30.01,South,180,4.2,-999.0,40,-99.99,,,0.00,Acu-Link.com,2013-03-07 17:56:00,
2013-03-07 13:11:00,68.7,42.1,30.00,NW,315,1.7,-999.0,38,-99.99,,,0.00,Acu-Link.com,2013-03-07 18:11:00,
2013-03-07 13:26:00,69.4,43.4,29.99,East,90,6.3,-999.0,39,-99.99,,,0.00,Acu-Link.com,2013-03-07 18:26:00,
2013-03-07 13:41:00,70.5,43.0,29.99,West,270,5.8,-999.0,37,-99.99,,,0.00,Acu-Link.com,2013-03-07 18:41:00,
2013-03-07 13:56:00,71.1,43.5,29.98,West,270,7.3,-999.0,37,-99.99,,,0.00,Acu-Link.com,2013-03-07 18:56:00,
2013-03-07 14:11:00,69.3,43.3,29.98,North,0,3.7,-999.0,39,-99.99,,,0.00,Acu-Link.com,2013-03-07 19:11:00,
2013-03-07 14:26:00,69.6,42.9,29.97,NE,45,2.7,-999.0,38,-99.99,,,0.00,Acu-Link.com,2013-03-07 19:26:00,
2013-03-07 14:42:00,70.9,42.6,29.97,NW,315,4.2,-999.0,36,-99.99,,,0.00,Acu-Link.com,2013-03-07 19:42:00,
2013-03-07 14:57:00,70.0,42.5,29.96,South,180,2.7,-999.0,37,-99.99,,,0.00,Acu-Link.com,2013-03-07 19:57:00,
2013-03-07 15:12:00,71.4,43.8,29.96,North,0,5.8,-999.0,37,-99.99,,,0.00,Acu-Link.com,2013-03-07 20:12:00,
2013-03-07 15:27:00,70.9,45.4,29.96,NE,45,5.3,-999.0,40,-99.99,,,0.00,Acu-Link.com,2013-03-07 20:27:00,
2013-03-07 15:42:00,72.5,46.1,29.96,NNW,337,4.7,-999.0,39,-99.99,,,0.00,Acu-Link.com,2013-03-07 20:42:00,
2013-03-07 15:57:00,70.7,47.7,29.96,NE,45,6.8,-999.0,44,-99.99,,,0.00,Acu-Link.com,2013-03-07 20:57:00,
2013-03-07 16:12:00,69.8,48.7,29.96,ESE,112,10.9,-999.0,47,-99.99,,,0.00,Acu-Link.com,2013-03-07 21:12:00,
2013-03-07 16:27:00,70.0,48.8,29.96,SSE,157,3.7,-999.0,47,-99.99,,,0.00,Acu-Link.com,2013-03-07 21:27:00,
2013-03-07 16:42:00,68.9,49.5,29.96,ESE,112,6.8,-999.0,50,-99.99,,,0.00,Acu-Link.com,2013-03-07 21:42:00,
2013-03-07 16:58:00,68.2,49.4,29.96,East,90,5.3,-999.0,51,-99.99,,,0.00,Acu-Link.com,2013-03-07 21:58:00,
2013-03-07 17:13:00,68.0,49.2,29.97,ESE,112,4.7,-999.0,51,-99.99,,,0.00,Acu-Link.com,2013-03-07 22:13:00,
2013-03-07 17:28:00,68.5,49.1,29.97,ESE,112,5.8,-999.0,50,-99.99,,,0.00,Acu-Link.com,2013-03-07 22:28:00,
2013-03-07 17:43:00,67.3,52.5,29.98,NE,45,8.9,-999.0,59,-99.99,,,0.00,Acu-Link.com,2013-03-07 22:43:00,
2013-03-07 17:58:00,65.8,54.1,29.98,East,90,5.3,-999.0,66,-99.99,,,0.00,Acu-Link.com,2013-03-07 22:58:00,
2013-03-07 18:13:00,64.9,54.5,29.98,ENE,67,4.2,-999.0,69,-99.99,,,0.00,Acu-Link.com,2013-03-07 23:13:00,
2013-03-07 18:28:00,64.0,54.8,29.99,NE,45,5.3,-999.0,72,-99.99,,,0.00,Acu-Link.com,2013-03-07 23:28:00,
2013-03-07 18:43:00,63.3,54.5,29.99,ENE,67,5.3,-999.0,73,-99.99,,,0.00,Acu-Link.com,2013-03-07 23:43:00,
2013-03-07 18:58:00,63.0,54.9,30.00,NE,45,4.7,-999.0,75,-99.99,,,0.00,Acu-Link.com,2013-03-07 23:58:00,
2013-03-07 19:14:00,62.4,55.1,30.00,NE,45,5.3,-999.0,77,-99.99,,,0.00,Acu-Link.com,2013-03-08 00:14:00,
2013-03-07 19:29:00,62.1,55.5,30.00,NNW,337,2.7,-999.0,79,-99.99,,,0.00,Acu-Link.com,2013-03-08 00:29:00,
2013-03-07 19:44:00,61.5,55.3,30.01,NNE,22,1.7,-999.0,80,-99.99,,,0.00,Acu-Link.com,2013-03-08 00:44:00,
2013-03-07 19:59:00,61.2,55.3,30.00,NNE,22,0.0,-999.0,81,-99.99,,,0.00,Acu-Link.com,2013-03-08 00:59:00,
2013-03-07 20:14:00,60.1,54.9,30.01,NNE,22,0.0,-999.0,83,-99.99,,,0.00,Acu-Link.com,2013-03-08 01:14:00,
2013-03-07 20:29:00,59.7,55.5,30.02,NNE,22,2.7,-999.0,86,-99.99,,,0.00,Acu-Link.com,2013-03-08 01:29:00,
2013-03-07 20:44:00,59.7,55.5,30.02,NNE,22,2.7,-999.0,86,-99.99,,,0.00,Acu-Link.com,2013-03-08 01:44:00,
2013-03-07 20:59:00,59.2,55.3,30.02,NNE,22,1.7,-999.0,87,-99.99,,,0.00,Acu-Link.com,2013-03-08 01:59:00,
2013-03-07 21:14:00,58.8,55.6,30.03,NNE,22,2.7,-999.0,89,-99.99,,,0.00,Acu-Link.com,2013-03-08 02:14:00,
2013-03-07 21:29:00,58.8,55.6,30.03,NNE,22,3.7,-999.0,89,-99.99,,,0.00,Acu-Link.com,2013-03-08 02:29:00,
2013-03-07 21:45:00,58.6,55.4,30.03,WNW,292,3.2,-999.0,89,-99.99,,,0.00,Acu-Link.com,2013-03-08 02:45:00,
2013-03-07 22:00:00,57.9,55.0,30.04,WNW,292,0.0,-999.0,90,-99.99,,,0.00,Acu-Link.com,2013-03-08 03:00:00,
2013-03-07 22:15:00,57.6,55.0,30.04,WNW,292,2.2,-999.0,91,-99.99,,,0.00,Acu-Link.com,2013-03-08 03:15:00,
2013-03-07 22:30:00,57.2,54.9,30.03,WNW,292,2.2,-999.0,92,-99.99,,,0.00,Acu-Link.com,2013-03-08 03:30:00,
2013-03-07 22:45:00,56.8,54.5,30.04,WNW,292,2.2,-999.0,92,-99.99,,,0.00,Acu-Link.com,2013-03-08 03:45:00,
2013-03-07 23:00:00,56.5,54.8,30.04,WNW,292,2.2,-999.0,94,-99.99,,,0.00,Acu-Link.com,2013-03-08 04:00:00,
2013-03-07 23:15:00,56.5,54.8,30.03,WNW,292,2.7,-999.0,94,-99.99,,,0.00,Acu-Link.com,2013-03-08 04:15:00,
2013-03-07 23:30:00,55.9,54.5,30.04,WNW,292,2.2,-999.0,95,-99.99,,,0.00,Acu-Link.com,2013-03-08 04:30:00,
2013-03-07 23:45:00,55.8,54.7,30.03,WNW,292,2.2,-999.0,96,-99.99,,,0.00,Acu-Link.com,2013-03-08 04:45:00,